Weather in Mezhdurechenskiy

Russia / Arkhangel'skaya Oblast'     64°02′52″N   44°25′11″E
temp.,
°C
wind,
m/s
gust,
m/s
humid.,
%
clouds,
%
prec.,
mm/h
press.,
hPa
HPBL,
m
29 june, wed
wed2900:00+5n27665 0.0 1027134
03:00+4n24775 0.0 102785
06:00+9nnw2360100 0.0 1027284
09:00+13nnw3444100 0.0 1026700
12:00+18nw352687 0.0 10231343
15:00+20nw46234 0.0 10211791
18:00+20nnw47295 0.0 10181921
21:00+15nnw284780 0.0 1018193
30 june, thu
thu3000:00+10nne266844 0.0 1019109
03:00+8nne26856 0.0 1020122
06:00+11ene3560100 0.0 1021425
09:00+16ne343572 0.0 1021939
12:00+19ne35275 0.0 10201422
15:00+21nne34245 0.0 10201657
18:00+21nne34265 0.0 10201558
21:00+15ne22485 0.0 102011
1 july, fri
fri100:00+11ese115213 0.0 102010
03:00+10wsw115710 0.0 102110
06:00+15sw23461 0.0 1020183
09:00+19w244476 0.1 1019396
12:00+20wnw3653100 0.1 1018687
15:00+18n377473 0.1 1018501
18:00+21n56530 0.0 10171266
21:00+16n37717 0.0 1018441
2 july, sat
sat200:00+11n27930 0.0 1019178
03:00+9n269822 0.0 1019173
06:00+12n347939 0.0 1019398
09:00+16n346548 0.0 1019796
12:00+19nne345528 0.0 10191046
15:00+21ne33515 0.0 10181127
18:00+22nne22505 0.0 10171179
21:00+17nne11715 0.0 101711
3 july, sun
sun300:00+13ene11840 0.0 101811
03:00+12s11897 0.0 101710
06:00+18sw12676 0.0 1017230
09:00+23wsw12495 0.0 1016929
12:00+27w23335 0.0 10151668
15:00+28w233060 0.0 10141987
18:00+28w244199 0.0 10121674
21:00+22sw22625 0.0 101220